This is the latest recevied weather packets stored in our database for station/object OE6ACM-10. If no packets are shown the sender has not sent any weather packets the latest 10 day(s).
| Time | Temp. | Humidity | Pressure | Rain* | Wind** | Luminosity | Snow |
|---|---|---|---|---|---|---|---|
| 1777724590 | 41.67° C | 27% | 931 hPa | - | - | - | - |
| 1777724290 | 41.11° C | 31% | 931.1 hPa | - | - | - | - |
| 1777723990 | 40.56° C | 31% | 931.1 hPa | - | - | - | - |
| 1777723690 | 39.44° C | 35% | 931.2 hPa | - | - | - | - |
| 1777723390 | 37.78° C | 36% | 931.3 hPa | - | - | - | - |
| 1777723090 | 36.67° C | 35% | 931.4 hPa | - | - | - | - |
| 1777722790 | 35.56° C | 40% | 931.4 hPa | - | - | - | - |
| 1777722490 | 33.89° C | 43% | 931.5 hPa | - | - | - | - |
| 1777722190 | 32.22° C | 38% | 931.6 hPa | - | - | - | - |
| 1777721890 | 31.67° C | 37% | 931.7 hPa | - | - | - | - |
| 1777721590 | 31.67° C | 41% | 931.7 hPa | - | - | - | - |
| 1777721290 | 31.67° C | 44% | 931.9 hPa | - | - | - | - |
| 1777720990 | 31.11° C | 41% | 931.9 hPa | - | - | - | - |
| 1777720690 | 31.11° C | 39% | 932 hPa | - | - | - | - |
| 1777720390 | 31.11° C | 42% | 932 hPa | - | - | - | - |
| 1777720090 | 30.56° C | 39% | 932.1 hPa | - | - | - | - |
| 1777719790 | 30.56° C | 41% | 932.1 hPa | - | - | - | - |
| 1777719490 | 30.56° C | 42% | 932.2 hPa | - | - | - | - |
| 1777719190 | 30.56° C | 43% | 932.2 hPa | - | - | - | - |
| 1777718890 | 30.56° C | 45% | 932.3 hPa | - | - | - | - |
| 1777718590 | 30.56° C | 48% | 932.4 hPa | - | - | - | - |
| 1777718290 | 30° C | 53% | 932.5 hPa | - | - | - | - |
| 1777717990 | 30° C | 47% | 932.6 hPa | - | - | - | - |
| 1777717690 | 30° C | 55% | 932.7 hPa | - | - | - | - |
| 1777717390 | 30° C | 55% | 932.8 hPa | - | - | - | - |
* Rain since midnight (hover to see other rain measurements)
** Current wind speed in m/s (hover to see current wind gust speed)